Showing default

GLOBALSTAR M065, 31571

Orbit data source: Space-Track

GLOBALSTAR M065, 31571 is a payload satellite owned by Globalstar (US) in LEO that was launched on Tue, 29 May 2007 UTC via a SOYUZ-FG launch vehicle from the Tyuratam Missile And Space Complex (TTMTR). Payload-class satellites include a variety of spacecraft equipped with specific instruments for various scientific and technological missions. These include communications satellites like Starlink; space stations such as the ISS; scientific satellites like the Hubble; Earth observation satellites from companies like Planet Labs, Umbra, and HawkEye 360; GPS; miniature CubeSats for education and research; and military/defense satellites.

Loading next visibility...
Identifier
31571, 2007-020A
Orbit
LEO
Country
Flag of UnknownUnknown / GLOB
Related business
Manufacturer
SS/Loral
Mission
Non-operational Commercial Communications
Bus & Motor
LS-400, LS-400 AOCS
Mass
450 kg wet, 380 kg dry
Launch date (UTC)
2007-05-29 (18 years ago)
Launch vehicle
SOYUZ-FG
Launch site
Tyuratam Missile And Space Complex (TTMTR)
Object type
Payload
Rocket body
Debris
Shape & HBR
Box + 2 Pan, 6.0 m
Radar Cross Section
5.587 m², Large (>1 m²)

Expand to show TLE details & history
Last TLE update: 12 hours ago

TLE from 12 hours ago
0 GLOBALSTAR M065
1 31571U 07020A   25261.12022580 -.00000110  00000-0 -32868-4 0  9997
2 31571  51.9903 303.4094 0010355 152.8475 235.6043 12.62010231845148
Epoch: 2025-09-18T02:53Z
TLE epoch observation values (Epoch: 2025-09-18T02:53:07.509Z)
Latitude
22.02365°
Longitude
-78.8225°
Altitude
1,419.707 km
Speed
7.152 km/s
True Right ascension
21h 26m 58s
True Declination
21° 54' 52"
Sunlit
Object was in full shadow at epoch
Visualization orbit readout
Latitude
Unknown
Longitude
Unknown
Altitude
Unknown
Speed
Unknown
Apparent Right ascension
Unknown
Apparent Declination
Unknown
Sunlit
N/A
Visualization observer readout
Local Sidereal Time
07:29:11
Azimuth
Unknown
Elevation
Unknown
Doppler factor
Unknown
Orbital elements
Apogee altitude
1,423.122 km
Perigee altitude
1,406.982 km
Semi-major axis
7,793.189 km
Eccentricity
0.00104
Inclination
51.9903°
RAAN
303.4094°
Arg. of periapsis
152.8475°
True anomaly
235.50646°
Mean anomaly
235.6043°
Eccentric anomaly
235.55537°
Mean motion
3.15479 °/min
Orbital period
114.11 mins
BSTAR
-0.000032868
Loading maneuver chart data...
Computing Atmospheric mass density...
Loading historical data...
Loading historical data...
Loading historical data...
Loading historical data...
Loading historical data...
Loading historical data...
Loading historical data...

Documentation

Showing up to 5 results
|